Home   Weather   Kansas City   Past weeks
Flag for USA

Past Weather in Kansas City, Missouri, USA — Yesterday and Last 2 Weeks

Now
45 °F

Overcast.


Feels Like: 39 °F
Forecast: 55 / 40 °F
Wind: 12 mph from Northwest

Location: Kansas City Downtown Airport

Current Time: Mar 20, 2019 at 10:37:14 am

Latest Report: Mar 20, 2019 at 9:54 am


Visibility: 6 mi

Pressure: 30.17 "Hg

Humidity: 80%

Dew Point: 39 °F

Location of Kansas CityLocation

Past Weather in Kansas City — Graph

°F

Kansas City Temperature Yesterday

Maximum temperature yesterday: 63 °F (at 3:54 pm)
Minimum temperature yesterday: 42 °F (at 6:54 am)
Average temperature yesterday: 50 °F

High & Low Weather Summary for the Past Weeks

 TemperatureHumidityPressure
High65 °F (Mar 13, 3:54 pm)92% (Mar 8, 9:12 am)30.52 "Hg (Mar 8, 9:12 am)
Low13 °F (Mar 6, 4:54 am)25% (Mar 16, 4:54 pm)29.16 "Hg (Mar 14, 1:54 am)
Average43 °F62%30.10 "Hg
* Reported Mar 5 7:54 am — Mar 20 8:54 am, Kansas City. Weather by CustomWeather, © 2019

Note: Actual official high and low records may vary slightly from our data, if they occured in-between our weather recording intervals... More about our weather records

Advertising

Kansas City Weather History for the Previous 24 Hours

Scroll right to see more
 ConditionsComfort  
Time TempWeatherWind HumidityBarometerVisibility
8:54 am
Wed, Mar 20
44 °FOvercast.7 mph82%30.17 "Hg8 mi
7:54 am44 °FOvercast.12 mph82%30.16 "Hg10 mi
7:38 am44 °FMostly cloudy.8 mph82%30.15 "Hg9 mi
6:54 am44 °FMostly cloudy.12 mph85%30.14 "Hg9 mi
6:23 am44 °FMostly cloudy.8 mph85%30.13 "Hg9 mi
5:54 am44 °FMostly cloudy.7 mph85%30.12 "Hg9 mi
5:24 am44 °FLow clouds.7 mph85%30.12 "Hg8 mi
4:54 am44 °FOvercast.9 mph85%30.12 "Hg10 mi
4:01 am44 °FOvercast.5 mph85%30.12 "Hg10 mi
2:54 am45 °FLow clouds.7 mph82%30.11 "Hg10 mi
2:34 am45 °FMostly cloudy.6 mph86%30.12 "Hg9 mi
2:11 am45 °FOvercast.6 mph82%30.12 "Hg9 mi
1:54 am45 °FMostly cloudy.8 mph86%30.11 "Hg10 mi
12:54 am46 °FMostly cloudy.3 mph83%30.11 "Hg10 mi
12:28 am46 °FLow clouds.3 mph86%30.11 "Hg10 mi
11:54 pm
Tue, Mar 19
47 °FLight rain. Overcast.6 mph83%30.11 "Hg7 mi
10:54 pm47 °FLight rain. Overcast.7 mph83%30.13 "Hg7 mi
9:54 pm50 °FPassing clouds.12 mph83%30.12 "Hg10 mi
8:54 pm53 °FMostly cloudy.7 mph77%30.10 "Hg10 mi
7:54 pm56 °FLight rain. Overcast.6 mph60%30.10 "Hg10 mi
6:54 pm61 °FOvercast.8 mph41%30.05 "Hg10 mi
5:54 pm61 °FSunny.10 mph41%30.07 "Hg10 mi
4:54 pm63 °FSunny.12 mph37%30.11 "Hg10 mi
3:54 pm63 °FSunny.14 mph37%30.13 "Hg10 mi
2:54 pm61 °FSunny.13 mph38%30.15 "Hg10 mi
1:54 pm58 °FScattered clouds.13 mph41%30.20 "Hg10 mi
12:54 pm54 °FPartly sunny.9 mph43%30.23 "Hg10 mi
11:54 am50 °FPartly sunny.17 mph54%30.27 "Hg10 mi
10:54 am48 °FOvercast.6 mph59%30.29 "Hg10 mi
Weather by CustomWeather, © 2019

See weather overview